Zurück zum Katalog

STARLINK-37944

AktivKommunikationVLEO
NORAD 100284·PAYLOAD·🇺🇸 United States

Gestartet Aug 11, 2026 von Cape Canaveral Space Force Station

Loading…

Nächste Überflüge (nächste 24 Stunden)

TLE

AlterndSource: Space-Track

Epoche: Sep 11, 2026, 13:41 UTC

1 A0284U 26183N   26254.57023524 -.01002922  00000-0 -87134-2 0  9994
2 A0284  53.1581 301.2137 0001716  31.2261 328.8859 15.70897675  4907

Verfolge STARLINK-37944 in Echtzeit mit AllMySat

Download on the App Store